Dewpoint
72 68 71 71 70 70 70 69 59 60 60 46 46 47 46 51 52 51 52 55 52 52 54 51 51 53 57 50 50 52 54 53 53 55 55 60 63 61 63 64 66 69 70 70 72 74 74 75 75 75 75 74 74 75 75 74 75 75 75 75 74 74 74 74 74 74 75 76 73 74 74 75 75 75 76 76 76 76 75 75 75 75 74 75 76 76 75 75 76 75 75 75 75 75 75 75 75
68 70 69 70 70 71 66 67 61 51 50 44 46 50 50 51 49 50 51 52 48 48 49 50 51 52 51 50 50 53 54 55 57 58 58 60 61 63 63 65 66 67 69 71 71 71 72 74 75 75 74 74 75 74 75 74 74 74 76 75 74 74 74 74 74 75 75 75 76 74 75 75 75 76 76 76 76 75 76 75 75 75 75 75 75 76 75 75 75 75 75 75 75 75 75 75 75
70 71 67 68 71 70 69 66 58 48 44 44 49 50 53 49 50 50 51 51 48 50 49 50 52 54 49 51 51 51 52 56 57 58 58 60 62 64 62 63 66 67 67 69 70 70 71 75 75 75 75 75 74 74 75 74 74 74 73 75 75 74 74 74 74 75 75 75 76 75 74 75 74 75 75 75 75 75 75 75 76 75 75 76 75 75 76 76 76 75 75 75 75 75 75 75 75
71 68 67 69 67 70 63 62 57 52 44 44 48 53 51 50 51 52 52 48 49 49 49 52 55 56 51 49 49 53 54 54 58 59 60 60 63 62 62 62 67 67 66 67 68 70 73 75 75 75 75 75 75 74 74 74 74 75 74 74 75 74 74 74 75 75 75 75 75 75 75 75 75 75 75 75 75 75 76 76 75 75 75 75 75 75 76 76 76 75 75 75 75 75 75 75 75
70 68 68 72 69 63 62 59 59 55 44 43 49 52 52 52 53 52 52 51 49 50 50 52 54 54 56 54 52 51 53 54 56 58 59 61 62 63 64 64 64 65 69 70 73 71 75 76 75 75 76 75 75 75 75 74 75 75 75 75 75 74 74 74 75 75 74 74 75 74 74 74 75 75 75 76 76 76 75 76 75 75 74 75 75 75 75 75 76 75 75 75 75 75 75 75 75
70 67 74 71 66 71 64 58 49 50 51 49 51 53 53 53 54 52 49 50 52 52 52 49 49 51 52 55 56 54 55 54 56 59 60 61 62 64 65 65 64 65 66 70 71 73 73 76 76 75 75 75 76 76 75 74 74 75 75 75 74 73 73 74 74 75 75 74 74 74 74 74 74 75 75 75 75 75 75 75 75 75 74 74 74 75 75 76 76 76 76 75 75 75 75 75 75
71 71 70 70 68 68 58 58 48 53 52 51 52 53 54 54 54 53 51 49 52 52 53 50 49 50 51 52 54 55 56 56 58 61 61 62 63 64 64 64 65 66 66 71 71 72 73 76 76 76 76 76 75 75 75 75 75 75 75 75 74 73 73 73 74 74 75 74 74 74 73 74 75 75 75 75 76 75 75 76 75 75 74 74 75 75 75 75 75 75 75 75 75 75 75 75 75
72 68 68 64 61 62 58 59 57 51 53 54 54 54 56 56 55 55 53 52 49 50 53 54 52 52 54 55 52 56 56 58 60 62 61 62 63 62 63 64 65 65 66 71 72 73 77 76 76 76 76 76 76 76 76 75 75 75 75 75 75 74 72 73 74 74 75 74 74 74 74 73 74 75 76 75 75 75 75 74 74 75 75 75 75 75 75 75 75 75 75 75 75 75 75 74 74
72 67 69 63 59 62 59 51 57 56 55 56 57 59 59 57 57 55 55 52 50 50 52 53 53 53 53 53 55 59 60 61 61 63 61 61 61 62 63 64 64 64 67 71 71 71 74 76 76 76 76 75 76 76 76 75 75 75 75 75 74 74 73 74 75 74 75 74 74 73 74 74 74 75 75 75 75 75 75 75 75 75 74 74 75 75 75 75 75 75 75 75 75 75 75 74 74
72 68 62 61 62 58 59 55 52 53 56 59 57 58 58 58 57 58 54 52 53 51 52 53 54 54 51 50 53 56 59 61 60 60 61 60 61 63 63 63 63 64 67 68 69 70 73 77 76 75 75 75 75 75 75 75 75 75 74 74 74 74 74 74 75 75 74 74 73 73 74 74 75 75 75 75 76 75 75 75 74 74 74 74 75 75 75 75 75 75 75 75 74 74 74 74 74
66 67 67 60 57 56 55 56 56 56 57 59 59 60 61 59 58 58 58 55 55 51 52 54 53 52 55 56 56 58 59 58 58 57 59 61 63 63 62 64 63 63 67 66 68 71 72 75 76 75 75 75 75 75 75 75 75 75 74 74 74 74 74 74 75 74 74 74 73 72 74 74 74 75 76 75 75 75 74 74 75 74 74 75 75 75 75 75 75 75 75 74 74 74 74 74 74
62 65 63 57 58 59 54 56 55 56 59 59 59 62 61 61 61 58 57 55 53 51 52 54 53 55 53 55 55 56 56 57 57 58 60 60 61 62 63 62 62 62 65 69 71 71 73 75 74 75 74 74 74 74 75 75 75 75 74 74 74 74 74 74 74 74 73 73 73 73 73 74 76 76 75 75 75 74 74 73 74 75 75 75 76 75 75 74 75 75 75 75 74 74 74 74 73
62 65 63 61 60 59 58 56 56 55 55 56 57 61 61 60 61 60 59 58 56 51 52 56 53 53 52 54 56 54 54 57 58 60 59 59 60 61 62 61 61 60 62 67 71 72 73 73 74 75 74 74 75 74 75 75 75 75 75 74 74 74 74 74 74 73 74 73 73 74 74 75 76 75 75 75 74 74 74 74 75 75 75 75 75 75 75 74 74 74 74 74 74 74 74 73 72
62 63 63 58 58 57 60 59 56 52 53 58 61 62 61 61 62 62 58 58 57 56 52 52 53 56 55 54 55 53 56 58 58 58 58 60 60 60 60 60 60 60 62 66 72 72 75 76 75 74 74 75 75 75 75 75 75 75 75 75 75 74 74 74 74 74 73 74 74 74 75 76 76 75 75 75 74 74 74 74 75 75 74 75 75 75 75 75 74 74 74 74 74 74 73 72 73
60 65 66 62 58 54 58 52 51 52 57 60 60 63 65 64 62 61 60 58 58 52 52 53 52 53 50 52 53 55 56 58 58 58 59 60 61 61 60 59 59 59 62 66 72 73 74 75 75 74 74 74 75 75 75 74 74 74 74 74 74 75 75 74 74 74 73 75 75 74 76 75 76 75 76 75 74 75 74 74 75 75 75 74 74 74 74 74 74 74 73 73 73 74 74 73 73
63 62 65 60 57 54 56 58 53 52 54 58 62 63 61 62 61 62 63 63 56 53 51 47 51 57 50 51 52 57 57 58 59 59 60 61 62 60 60 59 58 61 65 68 73 73 74 75 74 74 74 74 74 74 75 74 73 74 74 74 74 74 74 74 74 74 73 75 75 75 75 74 75 75 75 75 74 75 75 75 75 74 74 73 73 74 75 75 75 75 75 74 75 76 75 75 75
62 64 58 60 51 53 57 56 57 54 56 59 62 61 59 61 66 66 62 60 54 52 55 49 48 50 50 52 56 57 58 58 61 60 61 62 62 59 59 60 61 64 66 67 73 73 72 73 73 74 74 74 73 74 74 75 75 74 74 74 73 73 74 74 73 73 73 73 74 74 74 75 75 76 75 74 75 75 75 76 74 74 74 73 74 75 75 75 75 75 75 75 76 76 77 77 77
61 62 62 58 56 54 56 58 58 59 58 58 62 61 61 62 62 61 62 59 59 55 55 52 51 52 54 56 58 58 58 59 60 60 60 61 60 58 57 59 59 62 65 67 72 74 74 72 73 73 73 74 74 73 73 74 74 74 74 75 75 74 74 73 73 75 75 74 74 75 74 75 75 75 75 75 75 75 75 75 74 74 74 75 75 75 75 75 75 75 75 76 76 77 78 74 74
61 59 61 56 57 58 61 63 62 61 57 59 61 63 62 61 61 59 60 59 57 54 52 53 54 55 56 57 57 58 58 59 59 59 59 58 58 56 57 60 61 62 65 68 68 72 72 73 71 72 73 74 74 73 73 73 74 73 74 73 74 74 74 73 74 74 74 74 74 75 76 74 74 76 75 74 75 74 74 74 75 75 75 75 74 75 74 75 75 76 76 77 77 77 76 75 66
61 57 57 59 62 60 64 65 62 60 60 60 59 62 63 62 62 61 61 57 55 53 51 54 55 54 55 56 57 57 58 58 59 58 57 57 58 55 57 56 61 65 64 65 68 69 71 71 72 72 72 73 72 72 72 71 74 74 73 73 74 74 76 75 74 75 75 75 75 75 76 76 76 77 75 75 75 73 74 74 74 75 74 74 74 74 76 76 76 77 78 77 78 75 74 62 60
53 52 53 60 62 60 63 66 65 60 59 59 60 60 64 62 63 60 59 56 57 56 54 53 53 54 55 56 57 56 57 57 57 57 57 58 57 55 57 58 61 64 66 66 67 68 68 71 71 72 72 73 72 73 73 74 74 74 74 73 74 74 74 73 74 74 74 75 75 76 75 74 74 74 74 74 71 71 70 69 71 71 72 73 74 76 72 74 75 74 74 76 74 67 61 65 62
46 49 54 61 62 60 64 64 60 61 63 62 61 58 62 63 62 61 60 57 56 61 52 52 53 55 55 55 56 56 56 56 57 58 58 57 56 59 59 61 63 64 67 67 67 69 68 68 68 72 71 72 72 72 73 75 74 74 73 73 74 74 73 75 75 73 75 74 76 75 75 75 75 72 72 71 71 70 69 67 68 70 71 71 73 70 70 71 70 67 68 67 63 61 61 64 64
43 49 50 52 59 58 64 64 63 61 61 62 60 59 63 62 63 65 61 60 61 62 53 52 53 55 55 56 55 56 56 57 57 58 57 55 58 59 60 62 62 64 64 66 67 67 68 68 69 68 69 71 71 71 75 74 74 73 73 73 72 72 73 73 74 74 73 75 74 74 74 75 75 72 71 71 70 69 67 68 67 69 71 71 72 70 70 70 69 65 65 67 64 58 57 63 64
43 44 46 52 56 60 62 63 65 63 64 63 62 61 62 62 60 65 63 64 64 58 52 53 54 55 55 54 55 56 56 57 57 56 55 58 59 60 61 61 62 63 64 64 65 65 67 68 70 68 69 72 73 74 75 75 74 73 73 73 72 74 72 71 72 75 74 76 74 74 75 75 72 69 70 71 68 67 67 69 70 69 70 70 71 69 69 68 66 66 67 66 64 63 60 60 59
42 44 49 53 58 60 61 62 64 66 66 66 64 62 61 62 65 63 62 65 57 56 53 53 54 54 54 54 55 56 57 56 55 56 59 60 60 60 61 62 62 62 62 62 65 64 66 70 69 68 70 72 71 69 70 72 74 73 73 74 75 72 72 73 73 74 72 77 75 74 75 68 68 67 69 67 67 67 68 69 68 68 69 70 70 68 70 70 68 66 68 66 67 65 62 57 60
44 46 48 56 59 62 61 66 66 67 68 67 65 63 62 62 67 63 66 66 59 56 55 54 54 53 54 54 55 57 57 55 56 57 60 60 60 61 61 60 60 61 59 62 63 66 67 69 69 68 69 71 71 69 70 74 73 74 73 73 74 73 74 73 73 71 77 73 76 73 70 67 65 63 65 66 67 69 68 70 71 69 69 69 69 70 69 69 67 65 66 68 63 61 62 65 61
49 49 51 55 58 62 62 63 64 65 67 67 65 61 63 65 64 57 64 60 56 55 54 55 54 53 54 54 55 56 56 55 57 59 61 61 61 61 61 60 59 59 60 61 63 66 68 68 68 69 70 72 71 70 73 73 72 73 73 72 74 74 76 73 71 73 69 69 72 75 73 70 64 63 66 68 69 68 70 71 70 70 68 69 70 69 70 70 66 65 67 68 67 68 64 62 60
45 50 50 55 60 61 62 63 63 63 65 67 66 64 63 65 63 58 65 60 56 55 54 55 55 55 54 55 56 57 56 57 58 60 60 61 61 61 61 61 60 58 59 62 64 67 65 67 68 69 69 71 71 70 73 73 73 72 74 73 73 73 74 72 74 70 76 71 73 75 74 69 68 66 68 68 68 69 69 69 70 71 70 69 71 70 70 70 68 66 68 70 69 67 64 65 63
51 47 44 58 60 61 60 62 63 62 64 66 66 64 62 63 61 62 64 59 58 57 56 56 55 54 55 56 56 57 58 58 58 60 61 62 62 61 60 60 59 59 60 62 64 65 64 66 69 71 69 71 73 71 71 73 72 71 73 74 74 72 77 76 75 69 72 73 74 75 76 73 71 69 69 70 71 69 68 70 69 71 71 71 70 70 70 71 68 69 68 69 67 67 62 64 57
49 47 44 51 57 56 62 63 63 62 65 65 65 55 58 61 62 64 63 63 60 59 59 57 57 54 55 55 56 56 57 58 57 60 62 63 62 61 61 59 59 60 62 63 63 64 65 66 67 70 69 69 69 74 74 74 74 74 75 74 75 75 75 75 74 70 72 72 74 75 74 73 71 71 72 71 70 69 71 72 70 70 70 70 71 70 70 68 67 67 66 67 65 67 64 65 58
44 44 48 44 46 53 61 61 61 61 66 64 66 55 57 61 62 65 64 65 60 58 58 56 56 54 54 55 55 56 57 57 57 59 61 62 62 63 61 60 60 61 61 61 63 64 65 66 65 66 69 69 70 70 73 73 74 73 75 74 74 75 74 72 67 69 70 71 72 72 73 73 72 71 72 73 72 71 69 69 70 69 72 72 69 68 70 69 69 68 64 68 67 64 61 63 61
44 47 40 40 41 53 60 62 60 60 63 65 64 56 57 60 63 64 65 67 65 62 61 57 56 54 54 54 54 54 56 55 57 59 60 61 62 63 62 60 60 59 61 62 63 63 65 66 67 66 67 69 70 71 70 71 70 73 71 72 73 72 70 67 67 67 68 68 69 72 73 74 73 74 73 74 71 71 69 70 70 73 71 73 71 70 70 70 68 69 67 66 66 64 67 63 63
42 42 40 48 49 51 58 60 62 62 62 62 62 55 58 59 63 64 66 66 63 63 62 65 56 54 54 54 54 55 54 55 57 58 60 61 62 63 63 61 61 61 61 62 63 64 66 66 67 65 66 67 69 69 71 71 71 70 70 69 68 69 66 66 66 67 68 69 69 69 74 73 74 74 74 75 74 71 69 70 71 71 73 72 71 68 67 69 67 62 68 68 68 68 66 62 62
37 40 39 42 42 48 49 54 63 62 60 58 60 58 57 59 62 64 66 66 65 63 64 64 61 55 54 54 53 54 54 55 57 60 60 61 62 64 63 65 62 63 63 62 63 63 65 66 66 65 67 67 69 70 71 70 71 71 70 69 71 68 66 65 67 67 68 68 67 70 73 72 74 74 74 74 76 71 71 71 71 72 73 72 71 68 69 67 67 68 68 68 67 68 70 70 64
24 34 36 39 45 44 46 54 58 58 60 57 56 55 58 60 62 62 64 65 64 63 62 65 64 55 54 52 53 54 53 54 56 60 60 61 62 63 64 64 62 63 62 62 64 66 66 67 68 68 68 68 68 70 71 71 70 71 68 69 69 69 69 66 66 66 66 67 67 71 74 71 73 74 74 73 73 71 71 72 74 72 74 73 72 69 69 68 69 69 68 68 69 69 68 66 66
34 35 35 35 34 39 46 50 57 55 55 55 55 54 57 59 60 61 62 64 63 64 64 65 62 62 54 52 50 52 53 53 56 59 60 61 62 63 63 64 63 63 64 64 66 66 67 69 69 70 70 68 69 70 70 69 68 68 67 68 69 68 68 67 68 66 66 66 69 70 72 72 73 74 74 74 75 74 72 72 73 73 73 74 74 72 69 69 68 69 69 66 67 69 67 67 66
35 35 33 32 32 37 50 56 53 59 54 53 54 54 56 58 59 61 61 62 63 63 65 64 64 63 54 51 49 51 53 52 55 57 60 62 61 64 64 65 63 63 67 66 66 66 67 68 69 70 70 70 69 68 69 67 66 67 68 65 65 66 68 67 65 65 64 66 68 69 73 71 73 74 74 73 75 73 74 74 73 74 73 74 75 73 71 72 71 70 69 70 67 66 65 63 62
29 30 28 27 28 29 48 48 56 57 59 53 56 53 56 57 59 60 62 63 62 62 63 64 65 63 58 57 52 52 53 51 54 57 59 61 62 64 64 65 65 64 67 66 66 67 67 66 68 69 69 69 68 67 68 68 68 67 65 64 63 64 66 65 65 66 64 65 69 72 73 73 74 76 75 76 75 75 74 72 73 74 72 74 75 74 72 72 71 69 68 68 66 64 65 62 65
23 22 25 24 26 45 46 54 52 56 52 52 54 52 53 58 60 60 61 61 61 62 65 63 62 60 61 59 56 54 51 52 53 55 58 60 62 63 64 65 64 63 65 65 66 66 68 67 69 69 69 68 68 68 69 69 68 68 66 64 63 62 64 65 63 64 67 66 69 71 74 76 76 76 76 75 74 74 74 75 73 73 75 74 76 74 73 72 70 69 67 67 66 66 63 63 64
18 17 18 17 26 31 31 49 49 54 49 43 46 47 52 57 60 60 61 61 63 66 66 64 62 61 60 58 57 54 51 53 53 56 56 59 62 64 65 65 65 63 65 65 65 66 67 69 70 69 69 69 69 70 70 68 69 68 69 66 66 65 64 67 68 68 69 67 67 69 75 76 74 73 73 70 72 75 76 75 73 73 72 74 74 73 74 74 70 68 69 68 68 66 65 65 66
14 14 13 17 18 29 28 43 47 47 45 49 50 52 50 53 57 58 60 61 62 64 65 66 64 63 62 62 60 57 52 53 54 54 56 58 62 64 65 65 64 64 63 64 65 65 64 67 70 70 70 69 70 70 71 70 70 71 69 70 68 68 67 68 67 66 68 68 67 70 72 74 73 72 72 73 72 75 77 76 75 74 74 73 74 72 71 70 70 71 70 72 68 64 65 69 66
10 12 14 15 15 22 17 35 39 36 36 51 52 42 43 56 57 57 59 60 61 62 62 63 62 63 63 63 59 56 56 53 55 54 55 57 61 63 65 65 64 64 63 63 63 64 65 67 69 70 69 69 69 71 73 72 71 71 71 70 69 69 69 68 67 66 66 67 66 67 71 70 69 73 73 74 73 74 74 77 75 75 73 71 70 71 72 70 67 76 70 71 73 71 72 69 68
8 9 11 13 13 13 20 31 40 32 34 54 53 39 37 46 53 55 58 58 60 62 62 62 63 63 63 63 61 56 53 53 54 55 55 55 60 62 64 64 64 64 62 62 63 64 65 67 69 70 70 70 69 71 72 72 71 71 71 68 68 67 67 67 68 67 66 65 67 69 70 70 73 71 72 73 74 75 76 76 77 73 73 73 71 71 69 68 67 67 71 73 71 74 76 72 71
2 6 12 18 17 17 21 23 33 33 32 41 41 39 39 42 50 55 57 57 58 59 60 61 62 63 64 63 60 57 53 53 53 55 56 56 60 61 62 64 62 62 62 62 62 63 66 69 70 70 70 70 70 71 73 73 71 71 71 68 67 66 64 68 70 69 68 67 68 67 69 70 73 72 72 75 76 75 76 75 75 74 74 72 71 71 70 69 70 72 72 73 74 75 73 73 70
7 6 17 20 16 14 13 17 28 30 35 34 37 39 42 41 44 55 57 54 57 59 58 59 60 62 63 64 60 57 53 53 53 53 54 56 58 60 61 62 62 62 61 61 63 64 66 68 70 70 70 71 70 72 73 72 72 71 70 68 68 67 69 69 70 71 70 70 70 69 70 69 72 73 74 73 75 75 74 75 77 75 74 72 71 70 69 68 69 73 74 73 72 73 74 71 73
9 15 9 13 17 16 18 27 30 34 34 35 35 39 42 39 48 52 55 54 56 57 58 59 61 62 62 63 62 56 54 55 53 53 55 56 58 59 60 60 61 61 62 62 63 63 65 68 70 70 70 70 70 72 73 73 72 72 71 70 70 69 69 71 70 71 72 72 72 72 73 73 70 71 73 75 76 75 75 76 74 73 73 71 70 76 73 72 71 72 72 72 75 74 74 69 71
10 10 13 19 16 17 21 26 32 31 32 35 32 32 36 37 40 55 56 55 54 53 55 59 61 62 62 62 61 59 56 54 53 54 55 57 57 59 59 59 60 61 63 63 62 64 65 67 70 70 71 70 71 72 72 72 72 72 71 71 70 70 69 69 68 69 70 71 72 71 72 71 71 70 69 72 74 73 74 75 73 71 71 72 72 73 71 69 70 69 69 72 72 73 73 74 71
12 15 20 20 23 26 29 29 36 29 29 31 29 29 35 35 44 53 53 56 51 58 58 56 59 61 62 64 61 60 58 55 54 53 54 56 59 59 59 60 60 61 62 63 62 64 66 67 70 71 71 71 71 71 72 71 70 71 71 71 71 70 70 68 68 69 69 70 69 68 70 70 70 69 70 70 70 69 73 73 73 72 72 72 72 70 72 73 70 71 71 72 72 72 73 72 71
17 20 23 21 25 30 32 30 31 29 28 29 27 34 35 33 48 47 52 51 55 58 57 58 57 58 62 63 61 58 56 54 54 55 55 55 57 58 59 60 62 63 63 64 63 63 66 68 69 70 72 72 72 71 72 71 70 71 71 71 71 71 70 69 70 69 69 69 68 68 70 71 71 70 69 68 69 70 72 74 73 72 74 74 75 77 77 77 74 74 73 71 73 74 72 73 72
24 23 23 23 21 26 26 26 27 26 26 26 29 39 38 41 53 55 52 56 59 59 61 58 57 57 61 62 62 59 58 57 55 53 54 56 58 58 60 61 62 62 62 63 63 64 66 67 69 69 72 72 72 71 71 71 71 71 71 71 71 71 71 70 69 68 68 68 68 68 67 67 69 68 68 68 68 69 68 72 74 74 76 77 77 76 77 78 77 76 75 73 72 74 73 73 71
25 26 22 22 22 17 23 23 21 23 25 29 39 33 35 34 53 54 52 55 57 60 59 61 61 60 61 60 60 60 59 58 58 55 55 54 56 60 60 61 63 62 62 63 64 66 67 68 69 70 71 71 72 72 71 71 70 71 71 70 70 69 69 69 69 68 68 68 67 67 68 66 66 67 66 69 70 71 70 72 73 74 75 77 76 75 72 74 77 75 74 75 76 74 73 73 70
24 26 26 25 23 23 17 19 20 21 22 35 35 32 42 49 54 54 54 52 57 57 59 60 62 57 58 56 57 58 58 58 57 55 55 56 58 59 60 61 63 62 64 63 64 66 66 68 70 71 71 71 71 72 72 71 71 70 71 71 70 70 70 69 70 71 70 68 68 68 69 70 68 67 68 69 68 70 71 72 74 73 76 76 75 75 75 74 76 75 74 75 75 70 71 73 72
36 33 31 24 22 19 23 24 22 24 25 25 41 37 44 48 50 48 53 54 54 56 58 59 60 64 59 57 57 56 56 58 61 58 55 57 58 59 60 62 62 62 62 63 66 66 68 69 69 71 71 70 70 72 71 71 71 71 71 71 70 69 67 68 67 69 68 68 71 70 68 68 68 70 67 68 69 71 71 71 71 70 72 74 75 75 74 74 76 76 74 75 73 71 73 74 72
25 24 28 28 25 24 29 25 30 28 23 25 24 26 38 40 41 49 52 55 57 57 60 60 62 63 63 61 58 58 58 61 64 62 59 59 58 59 61 61 61 62 62 63 66 65 67 68 69 70 69 70 68 69 68 69 70 70 70 71 71 70 67 67 68 68 68 69 70 71 70 69 68 68 68 66 68 69 71 71 70 71 72 73 73 73 74 73 75 74 72 75 75 75 75 75 74
22 22 32 28 25 27 31 24 22 23 29 28 24 23 27 31 41 49 51 55 54 57 60 62 61 61 61 64 63 61 61 60 60 61 59 59 59 59 63 64 60 62 65 65 63 64 66 68 68 70 69 67 66 66 67 68 69 68 68 69 69 69 68 67 68 69 70 69 68 68 69 69 69 70 70 71 71 68 70 70 72 70 71 73 74 73 74 75 76 75 72 71 74 75 74 73 73
27 27 24 27 29 32 35 37 35 26 23 26 26 25 25 48 51 54 54 56 57 54 57 60 62 63 61 63 64 64 60 58 60 62 61 61 60 61 62 63 61 62 63 62 62 64 63 66 68 69 68 67 68 65 66 67 67 67 66 68 69 70 70 68 68 69 67 68 68 67 68 67 69 69 69 69 70 70 70 69 69 68 67 69 71 70 71 72 74 74 71 68 69 74 75 75 73
30 31 34 28 26 28 30 33 29 28 26 25 26 26 33 52 57 57 56 57 57 58 58 62 62 63 63 63 65 64 65 62 63 64 62 61 62 62 63 63 60 61 63 62 62 62 62 64 65 66 67 65 65 64 65 67 66 67 67 67 66 68 67 67 66 67 67 68 68 69 68 68 69 69 69 69 70 71 71 71 70 70 67 69 72 71 71 72 73 73 73 72 73 74 76 75 75
27 28 39 43 34 29 29 29 24 24 26 27 22 25 43 52 55 57 56 55 57 57 59 61 62 62 63 65 67 67 67 66 61 58 61 60 61 66 65 65 63 60 62 63 63 64 65 65 64 64 65 65 64 64 66 66 66 66 65 65 66 66 67 67 65 65 66 66 67 68 69 69 68 69 69 68 71 70 70 70 70 70 71 68 72 73 70 70 72 73 73 69 69 72 74 73 73